TAP1692 LPMA-LPPT

Flight info

Callsign TAP1692
Flight time 1h 23m
Altitude 36000
Route DEGUN DCT NARTA DCT ESUTI
Aircraft A320/M-SDE3FGHIRWY/LB1

Departure

Time 2026-05-07 18:55
Airport Cristiano Ronaldo International Airport (LPMA)

Arrival

Time 2026-05-07 20:18
Airport Lisbon Humberto Delgado Airport (LPPT)
Time Latitude Longitude Altitude Speed Heading
2026-05-07 18:08 32.69384 -16.77626 169 ft 0 kts 138°
2026-05-07 18:43 32.69389 -16.77631 169 ft 2 kts 138°
2026-05-07 18:44 32.69403 -16.77645 169 ft 2 kts 138°
2026-05-07 18:44 32.69415 -16.77660 169 ft 3 kts 118°
2026-05-07 18:44 32.69421 -16.77681 169 ft 3 kts 77°
2026-05-07 18:44 32.69413 -16.77702 169 ft 3 kts 51°
2026-05-07 18:45 32.69405 -16.77713 169 ft 1 kts 46°
2026-05-07 18:45 32.69403 -16.77715 169 ft 0 kts 46°
2026-05-07 18:48 32.69437 -16.77671 169 ft 18 kts 45°
2026-05-07 18:48 32.69523 -16.77565 169 ft 16 kts 46°
2026-05-07 18:48 32.69601 -16.77470 169 ft 16 kts 45°
2026-05-07 18:49 32.69675 -16.77378 169 ft 15 kts 47°
2026-05-07 18:49 32.69738 -16.77301 174 ft 9 kts 45°
2026-05-07 18:49 32.69764 -16.77269 177 ft 4 kts 45°
2026-05-07 18:49 32.69786 -16.77243 179 ft 3 kts 46°
2026-05-07 18:50 32.69794 -16.77233 180 ft 2 kts 46°
2026-05-07 18:50 32.69794 -16.77232 180 ft 0 kts 46°
2026-05-07 18:51 32.69809 -16.77213 182 ft 10 kts 46°
2026-05-07 18:51 32.69864 -16.77178 196 ft 7 kts
2026-05-07 18:52 32.69928 -16.77177 188 ft 16 kts 359°
2026-05-07 18:52 32.70038 -16.77152 188 ft 16 kts 37°
2026-05-07 18:52 32.70124 -16.77052 188 ft 18 kts 45°
2026-05-07 18:52 32.70217 -16.76944 193 ft 19 kts 44°
2026-05-07 18:53 32.70318 -16.76827 188 ft 21 kts 44°
2026-05-07 18:53 32.70425 -16.76702 201 ft 23 kts 44°
2026-05-07 18:53 32.70552 -16.76553 192 ft 27 kts 44°
2026-05-07 18:53 32.70678 -16.76472 195 ft 17 kts 37°
2026-05-07 18:54 32.70653 -16.76441 197 ft 4 kts 220°
2026-05-07 18:54 32.70627 -16.76463 196 ft 12 kts 220°
2026-05-07 18:54 32.70548 -16.76556 189 ft 40 kts 225°
2026-05-07 18:54 32.70130 -16.77047 189 ft 126 kts 224°
2026-05-07 18:55 32.69342 -16.77969 250 ft 183 kts 225°
2026-05-07 18:55 32.68377 -16.79001 1057 ft 186 kts 213°
2026-05-07 18:55 32.67162 -16.79406 2132 ft 180 kts 177°
2026-05-07 18:55 32.65967 -16.79111 2859 ft 177 kts 170°
2026-05-07 18:56 32.64678 -16.78864 3160 ft 199 kts 173°
2026-05-07 18:56 32.63225 -16.78642 3412 ft 223 kts 174°
2026-05-07 18:56 32.61606 -16.78336 3775 ft 248 kts 163°
2026-05-07 18:56 32.60160 -16.77135 4281 ft 266 kts 125°
2026-05-07 18:57 32.59560 -16.75063 5045 ft 273 kts 90°
2026-05-07 18:57 32.59921 -16.72854 5895 ft 276 kts 70°
2026-05-07 18:57 32.60661 -16.70744 6757 ft 279 kts 66°
2026-05-07 18:57 32.61446 -16.68627 7595 ft 282 kts 66°
2026-05-07 18:58 32.62240 -16.66487 8417 ft 285 kts 66°
2026-05-07 18:58 32.62999 -16.64302 9210 ft 289 kts 71°
2026-05-07 18:58 32.63564 -16.62001 9995 ft 292 kts 76°
2026-05-07 18:58 32.64029 -16.59604 10485 ft 308 kts 78°
2026-05-07 18:59 32.64543 -16.57039 10738 ft 330 kts 72°
2026-05-07 18:59 32.65474 -16.54507 11307 ft 338 kts 59°
2026-05-07 18:59 32.66887 -16.52253 11998 ft 342 kts 45°
2026-05-07 18:59 32.68607 -16.50279 12705 ft 346 kts 43°
2026-05-07 19:00 32.70362 -16.48303 13396 ft 349 kts 43°
2026-05-07 19:00 32.72134 -16.46307 14072 ft 353 kts 43°
2026-05-07 19:00 32.73915 -16.44286 14730 ft 356 kts 43°
2026-05-07 19:00 32.75714 -16.42234 15367 ft 360 kts 43°
2026-05-07 19:01 32.77531 -16.40174 15989 ft 363 kts 43°
2026-05-07 19:01 32.79392 -16.38130 16595 ft 366 kts 42°
2026-05-07 19:01 32.80345 -16.37102 16895 ft 368 kts 41°
2026-05-07 19:01 32.82219 -16.35101 17470 ft 371 kts 41°
2026-05-07 19:02 32.84152 -16.33049 18044 ft 374 kts 41°
2026-05-07 19:02 32.86099 -16.30979 18609 ft 377 kts 41°
2026-05-07 19:02 32.88059 -16.28884 19164 ft 380 kts 41°
2026-05-07 19:02 32.90031 -16.26767 19711 ft 384 kts 41°
2026-05-07 19:03 32.92018 -16.24629 20248 ft 387 kts 41°
2026-05-07 19:03 32.94018 -16.22468 20776 ft 390 kts 42°
2026-05-07 19:03 32.96032 -16.20288 21298 ft 393 kts 42°
2026-05-07 19:03 32.98061 -16.18089 21804 ft 396 kts 42°
2026-05-07 19:04 33.00108 -16.15874 22304 ft 399 kts 41°
2026-05-07 19:04 33.02166 -16.13647 22784 ft 402 kts 42°
2026-05-07 19:04 33.04246 -16.11394 23253 ft 405 kts 42°
2026-05-07 19:04 33.06338 -16.09128 23710 ft 408 kts 42°
2026-05-07 19:05 33.08445 -16.06843 24147 ft 410 kts 42°
2026-05-07 19:05 33.10535 -16.04575 24558 ft 413 kts 42°
2026-05-07 19:05 33.12693 -16.02234 24976 ft 416 kts 42°
2026-05-07 19:05 33.14812 -15.99933 25362 ft 418 kts 42°
2026-05-07 19:06 33.16969 -15.97588 25744 ft 421 kts 42°
2026-05-07 19:06 33.21318 -15.92856 26475 ft 425 kts 42°
2026-05-07 19:06 33.23508 -15.90470 26827 ft 428 kts 42°
2026-05-07 19:07 33.25712 -15.88065 27172 ft 430 kts 42°
2026-05-07 19:07 33.27925 -15.85649 27509 ft 432 kts 42°
2026-05-07 19:07 33.30145 -15.83223 27839 ft 434 kts 42°
2026-05-07 19:07 33.32382 -15.80777 28156 ft 436 kts 42°
2026-05-07 19:08 33.34629 -15.78322 28474 ft 439 kts 42°
2026-05-07 19:08 33.36889 -15.75851 28777 ft 441 kts 42°
2026-05-07 19:08 33.39152 -15.73373 29070 ft 443 kts 42°
2026-05-07 19:08 33.41428 -15.70877 29355 ft 445 kts 42°
2026-05-07 19:09 33.43714 -15.68371 29632 ft 446 kts 42°
2026-05-07 19:09 33.46007 -15.65854 29900 ft 448 kts 42°
2026-05-07 19:09 33.48306 -15.63323 30158 ft 450 kts 42°
2026-05-07 19:09 33.50617 -15.60779 30409 ft 452 kts 42°
2026-05-07 19:10 33.52939 -15.58228 30649 ft 454 kts 42°
2026-05-07 19:10 33.55274 -15.55664 30873 ft 455 kts 42°
2026-05-07 19:10 33.57613 -15.53090 31105 ft 457 kts 42°
2026-05-07 19:10 33.59957 -15.50506 31376 ft 457 kts 42°
2026-05-07 19:11 33.62292 -15.47930 31692 ft 456 kts 42°
2026-05-07 19:11 33.63838 -15.46221 31896 ft 455 kts 42°
2026-05-07 19:11 33.66167 -15.43646 32191 ft 455 kts 42°
2026-05-07 19:11 33.68490 -15.41073 32496 ft 454 kts 42°
2026-05-07 19:12 33.70809 -15.38502 32787 ft 454 kts 42°
2026-05-07 19:12 33.73879 -15.35098 33167 ft 453 kts 42°
2026-05-07 19:12 33.76190 -15.32530 33453 ft 452 kts 42°
2026-05-07 19:12 33.77752 -15.30796 33644 ft 452 kts 42°
2026-05-07 19:13 33.80062 -15.28233 33926 ft 451 kts 42°
2026-05-07 19:13 33.82368 -15.25676 34207 ft 451 kts 42°
2026-05-07 19:13 33.84641 -15.23155 34477 ft 450 kts 42°
2026-05-07 19:13 33.86936 -15.20602 34738 ft 449 kts 42°
2026-05-07 19:14 33.89232 -15.18045 34986 ft 449 kts 42°
2026-05-07 19:14 33.91552 -15.15459 35230 ft 449 kts 42°
2026-05-07 19:14 33.93809 -15.12938 35455 ft 448 kts 42°
2026-05-07 19:14 33.96093 -15.10385 35677 ft 448 kts 42°
2026-05-07 19:15 33.98377 -15.07835 35894 ft 447 kts 42°
2026-05-07 19:15 34.00668 -15.05280 35996 ft 446 kts 42°
2026-05-07 19:15 34.05192 -15.00213 36010 ft 443 kts 43°
2026-05-07 19:16 34.09693 -14.95155 36008 ft 442 kts 43°
2026-05-07 19:16 34.14199 -14.90099 36009 ft 442 kts 43°
2026-05-07 19:17 34.18700 -14.85036 36008 ft 442 kts 43°
2026-05-07 19:17 34.23170 -14.79996 36009 ft 442 kts 43°
2026-05-07 19:18 34.27671 -14.74931 36010 ft 442 kts 43°
2026-05-07 19:18 34.32173 -14.69860 36010 ft 442 kts 43°
2026-05-07 19:19 34.36664 -14.64780 36011 ft 442 kts 43°
2026-05-07 19:19 34.41152 -14.59682 36011 ft 442 kts 43°
2026-05-07 19:20 34.45639 -14.54586 36011 ft 442 kts 43°
2026-05-07 19:20 34.50130 -14.49499 36011 ft 442 kts 43°
2026-05-07 19:21 34.54618 -14.44397 36011 ft 442 kts 43°
2026-05-07 19:21 34.59071 -14.39312 36011 ft 442 kts 43°
2026-05-07 19:22 34.63543 -14.34196 36013 ft 442 kts 43°
2026-05-07 19:22 34.68021 -14.29075 36007 ft 441 kts 43°
2026-05-07 19:23 34.72491 -14.23964 36005 ft 441 kts 43°
2026-05-07 19:23 34.76962 -14.18840 36005 ft 441 kts 43°
2026-05-07 19:24 34.81428 -14.13708 36005 ft 442 kts 43°
2026-05-07 19:24 34.85895 -14.08565 36009 ft 442 kts 43°
2026-05-07 19:25 34.90361 -14.03415 36004 ft 441 kts 43°
2026-05-07 19:25 34.94826 -13.98270 36006 ft 441 kts 43°
2026-05-07 19:26 34.99284 -13.93117 36006 ft 441 kts 43°
2026-05-07 19:26 35.03731 -13.87956 36002 ft 441 kts 43°
2026-05-07 19:27 35.08181 -13.82794 36002 ft 441 kts 43°
2026-05-07 19:27 35.12634 -13.77630 36003 ft 441 kts 43°
2026-05-07 19:28 35.17084 -13.72464 36004 ft 442 kts 43°
2026-05-07 19:28 35.21536 -13.67273 36006 ft 442 kts 43°
2026-05-07 19:29 35.25984 -13.62082 36010 ft 442 kts 43°
2026-05-07 19:29 35.30406 -13.56894 36014 ft 442 kts 43°
2026-05-07 19:30 35.34851 -13.51676 36017 ft 442 kts 43°
2026-05-07 19:30 35.39307 -13.46473 36018 ft 442 kts 43°
2026-05-07 19:31 35.43755 -13.41266 36017 ft 442 kts 43°
2026-05-07 19:31 35.48198 -13.36039 36016 ft 442 kts 43°
2026-05-07 19:32 35.52630 -13.30814 36015 ft 442 kts 43°
2026-05-07 19:32 35.57058 -13.25578 36013 ft 441 kts 43°
2026-05-07 19:33 35.61451 -13.20382 36011 ft 441 kts 43°
2026-05-07 19:33 35.65875 -13.15138 36008 ft 441 kts 44°
2026-05-07 19:34 35.70243 -13.09958 36006 ft 441 kts 43°
2026-05-07 19:34 35.74663 -13.04708 36008 ft 441 kts 44°
2026-05-07 19:35 35.79081 -12.99442 36008 ft 441 kts 44°
2026-05-07 19:35 35.83498 -12.94181 36006 ft 441 kts 44°
2026-05-07 19:36 35.87908 -12.88923 36004 ft 441 kts 44°
2026-05-07 19:36 35.92309 -12.83654 36007 ft 441 kts 44°
2026-05-07 19:37 35.96714 -12.78376 36002 ft 441 kts 44°
2026-05-07 19:37 36.01115 -12.73107 36000 ft 441 kts 44°
2026-05-07 19:38 36.05511 -12.67832 36003 ft 441 kts 44°
2026-05-07 19:38 36.09898 -12.62540 36000 ft 440 kts 44°
2026-05-07 19:39 36.14290 -12.57244 35995 ft 440 kts 44°
2026-05-07 19:39 36.18675 -12.51949 35998 ft 440 kts 44°
2026-05-07 19:40 36.23061 -12.46648 36000 ft 440 kts 44°
2026-05-07 19:40 36.27443 -12.41343 35995 ft 440 kts 44°
2026-05-07 19:41 36.31820 -12.36021 35996 ft 441 kts 44°
2026-05-07 19:41 36.36196 -12.30700 35997 ft 441 kts 44°
2026-05-07 19:42 36.40586 -12.25371 36002 ft 441 kts 44°
2026-05-07 19:42 36.44964 -12.20036 36003 ft 441 kts 44°
2026-05-07 19:43 36.49333 -12.14682 36001 ft 441 kts 44°
2026-05-07 19:43 36.53676 -12.09362 36003 ft 441 kts 44°
2026-05-07 19:44 36.58048 -12.04004 36007 ft 441 kts 44°
2026-05-07 19:44 36.62419 -11.98641 36004 ft 441 kts 44°
2026-05-07 19:45 36.66787 -11.93267 36004 ft 441 kts 44°
2026-05-07 19:45 36.71156 -11.87894 36004 ft 441 kts 44°
2026-05-07 19:46 36.75523 -11.82511 36006 ft 441 kts 44°
2026-05-07 19:46 36.79883 -11.77112 36008 ft 441 kts 44°
2026-05-07 19:47 36.84212 -11.71741 36010 ft 441 kts 44°
2026-05-07 19:47 36.88579 -11.66336 36014 ft 441 kts 44°
2026-05-07 19:48 36.92937 -11.60923 36012 ft 441 kts 44°
2026-05-07 19:48 36.97289 -11.55501 36013 ft 441 kts 44°
2026-05-07 19:49 37.01635 -11.50082 36013 ft 441 kts 44°
2026-05-07 19:49 37.05989 -11.44648 36012 ft 441 kts 44°
2026-05-07 19:50 37.10330 -11.39218 36012 ft 441 kts 45°
2026-05-07 19:50 37.14669 -11.33777 36013 ft 441 kts 44°
2026-05-07 19:51 37.18981 -11.28366 36014 ft 441 kts 45°
2026-05-07 19:51 37.23322 -11.22906 36015 ft 442 kts 45°
2026-05-07 19:52 37.27618 -11.17494 36016 ft 442 kts 45°
2026-05-07 19:52 37.31218 -11.12943 36016 ft 441 kts 45°
2026-05-07 19:53 37.35545 -11.07469 36015 ft 441 kts 45°
2026-05-07 19:53 37.39878 -11.01992 36015 ft 441 kts 45°
2026-05-07 19:54 37.44204 -10.96502 35998 ft 442 kts 45°
2026-05-07 19:54 37.48551 -10.90992 35990 ft 444 kts 45°
2026-05-07 19:55 37.50715 -10.88242 35459 ft 441 kts 45°
2026-05-07 19:55 37.52843 -10.85534 34108 ft 445 kts 45°
2026-05-07 19:55 37.55039 -10.82739 32792 ft 449 kts 45°
2026-05-07 19:55 37.57223 -10.79959 31892 ft 441 kts 45°
2026-05-07 19:56 37.59337 -10.77260 31418 ft 424 kts 45°
2026-05-07 19:56 37.61535 -10.74452 30856 ft 409 kts 45°
2026-05-07 19:56 37.63353 -10.72127 30408 ft 397 kts 45°
2026-05-07 19:56 37.65265 -10.69677 29930 ft 385 kts 45°
2026-05-07 19:57 37.67114 -10.67305 29480 ft 374 kts 45°
2026-05-07 19:57 37.68940 -10.64963 29030 ft 374 kts 45°
2026-05-07 19:57 37.70758 -10.62631 28594 ft 371 kts 45°
2026-05-07 19:57 37.72566 -10.60312 28165 ft 369 kts 45°
2026-05-07 19:58 37.74362 -10.58009 27733 ft 367 kts 45°
2026-05-07 19:58 37.76144 -10.55721 27330 ft 364 kts 45°
2026-05-07 19:58 37.77916 -10.53443 26916 ft 362 kts 45°
2026-05-07 19:58 37.79675 -10.51182 26511 ft 359 kts 45°
2026-05-07 19:59 37.81422 -10.48931 26109 ft 357 kts 45°
2026-05-07 19:59 37.83158 -10.46692 25685 ft 355 kts 45°
2026-05-07 19:59 37.84882 -10.44468 25264 ft 352 kts 45°
2026-05-07 19:59 37.86590 -10.42252 24857 ft 354 kts 45°
2026-05-07 20:00 37.88337 -10.39944 24440 ft 368 kts 46°
2026-05-07 20:00 37.90101 -10.37581 24076 ft 369 kts 46°
2026-05-07 20:00 37.91860 -10.35205 23986 ft 370 kts 46°
2026-05-07 20:00 37.93628 -10.32814 24008 ft 371 kts 46°
2026-05-07 20:01 37.95332 -10.30512 24007 ft 372 kts 46°
2026-05-07 20:01 37.97105 -10.28124 23422 ft 370 kts 46°
2026-05-07 20:01 37.98867 -10.25757 22575 ft 368 kts 46°
2026-05-07 20:01 38.00612 -10.23412 21787 ft 364 kts 46°
2026-05-07 20:02 38.02265 -10.21188 21067 ft 359 kts 46°
2026-05-07 20:02 38.03922 -10.18955 20646 ft 354 kts 46°
2026-05-07 20:02 38.05600 -10.16690 20241 ft 351 kts 46°
2026-05-07 20:02 38.07268 -10.14441 19835 ft 349 kts 46°
2026-05-07 20:03 38.08923 -10.12208 19434 ft 347 kts 46°
2026-05-07 20:03 38.10575 -10.09979 19031 ft 345 kts 46°
2026-05-07 20:03 38.12210 -10.07769 18633 ft 342 kts 46°
2026-05-07 20:03 38.13746 -10.05476 18330 ft 340 kts 53°
2026-05-07 20:04 38.15142 -10.03054 18080 ft 340 kts 53°
2026-05-07 20:04 38.16519 -10.00618 17829 ft 338 kts 54°
2026-05-07 20:04 38.17879 -9.98184 17579 ft 337 kts 54°
2026-05-07 20:04 38.19232 -9.95759 17329 ft 336 kts 54°
2026-05-07 20:05 38.20583 -9.93340 17078 ft 335 kts 54°
2026-05-07 20:05 38.21931 -9.90929 16829 ft 333 kts 54°
2026-05-07 20:05 38.23268 -9.88533 16535 ft 330 kts 54°
2026-05-07 20:05 38.24593 -9.86165 16162 ft 328 kts 54°
2026-05-07 20:06 38.25904 -9.83824 15920 ft 330 kts 54°
2026-05-07 20:06 38.27238 -9.81438 15681 ft 332 kts 54°
2026-05-07 20:06 38.28573 -9.79049 15299 ft 330 kts 54°
2026-05-07 20:06 38.29905 -9.76666 14899 ft 329 kts 54°
2026-05-07 20:07 38.31227 -9.74298 14491 ft 328 kts 54°
2026-05-07 20:07 38.31918 -9.73059 14295 ft 327 kts 54°
2026-05-07 20:07 38.33232 -9.70700 13892 ft 326 kts 54°
2026-05-07 20:07 38.34544 -9.68346 13493 ft 325 kts 54°
2026-05-07 20:08 38.35849 -9.65999 13087 ft 324 kts 54°
2026-05-07 20:08 38.37147 -9.63658 12690 ft 322 kts 54°
2026-05-07 20:08 38.38436 -9.61334 12286 ft 321 kts 54°
2026-05-07 20:08 38.39721 -9.59021 11924 ft 318 kts 54°
2026-05-07 20:09 38.40990 -9.56741 11535 ft 316 kts 54°
2026-05-07 20:09 38.42260 -9.54461 11128 ft 315 kts 54°
2026-05-07 20:09 38.43526 -9.52185 10731 ft 313 kts 54°
2026-05-07 20:10 38.45937 -9.47829 9931 ft 292 kts 54°
2026-05-07 20:10 38.47083 -9.45751 9520 ft 281 kts 54°
2026-05-07 20:10 38.48186 -9.43750 9138 ft 270 kts 54°
2026-05-07 20:10 38.49241 -9.41833 8768 ft 260 kts 54°
2026-05-07 20:11 38.50265 -9.39975 8408 ft 250 kts 54°
2026-05-07 20:11 38.51252 -9.38191 8046 ft 242 kts 54°
2026-05-07 20:11 38.52204 -9.36469 7800 ft 230 kts 54°
2026-05-07 20:11 38.53131 -9.34792 7217 ft 235 kts 54°
2026-05-07 20:12 38.54075 -9.33077 6682 ft 237 kts 54°
2026-05-07 20:12 38.55026 -9.31351 6154 ft 238 kts 54°
2026-05-07 20:12 38.55971 -9.29632 5683 ft 235 kts 54°
2026-05-07 20:12 38.56910 -9.27926 5235 ft 233 kts 54°
2026-05-07 20:13 38.57825 -9.26265 4789 ft 230 kts 54°
2026-05-07 20:13 38.58748 -9.24602 4319 ft 229 kts 51°
2026-05-07 20:13 38.59942 -9.23311 3875 ft 224 kts 25°
2026-05-07 20:13 38.61237 -9.22586 3582 ft 215 kts 21°
2026-05-07 20:14 38.62598 -9.21874 3298 ft 207 kts 21°
2026-05-07 20:14 38.63910 -9.21181 3028 ft 202 kts 21°
2026-05-07 20:14 38.64872 -9.20670 2828 ft 200 kts 21°
2026-05-07 20:14 38.65944 -9.20099 2643 ft 196 kts 21°
2026-05-07 20:15 38.67175 -9.19443 2351 ft 186 kts 21°
2026-05-07 20:15 38.68330 -9.18827 2101 ft 173 kts 21°
2026-05-07 20:15 38.69401 -9.18256 1880 ft 161 kts 21°
2026-05-07 20:15 38.70394 -9.17726 1704 ft 150 kts 21°
2026-05-07 20:16 38.71337 -9.17223 1486 ft 145 kts 21°
2026-05-07 20:16 38.72263 -9.16730 1300 ft 143 kts 21°
2026-05-07 20:16 38.73181 -9.16240 1106 ft 142 kts 21°
2026-05-07 20:16 38.74094 -9.15752 925 ft 142 kts 21°
2026-05-07 20:17 38.75003 -9.15267 735 ft 141 kts 21°
2026-05-07 20:17 38.75906 -9.14785 554 ft 141 kts 21°
2026-05-07 20:17 38.76808 -9.14302 367 ft 139 kts 22°
2026-05-07 20:17 38.77516 -9.13923 365 ft 55 kts 23°
2026-05-07 20:18 38.77844 -9.13748 363 ft 54 kts 22°
2026-05-07 20:18 38.78162 -9.13574 371 ft 43 kts 24°
2026-05-07 20:18 38.78335 -9.13402 364 ft 25 kts 46°
2026-05-07 20:18 38.78375 -9.13340 362 ft 6 kts 76°
2026-05-07 20:19 38.78370 -9.13283 367 ft 7 kts 122°
2026-05-07 20:19 38.78343 -9.13264 361 ft 0 kts 168°
2026-05-07 20:20 38.78321 -9.13265 359 ft 9 kts 192°
2026-05-07 20:20 38.78265 -9.13293 363 ft 8 kts 203°
2026-05-07 20:20 38.78205 -9.13326 360 ft 11 kts 202°
2026-05-07 20:20 38.78138 -9.13360 360 ft 10 kts 202°
2026-05-07 20:21 38.78069 -9.13399 362 ft 15 kts 204°
2026-05-07 20:21 38.77933 -9.13393 352 ft 23 kts 167°
2026-05-07 20:21 38.77776 -9.13350 349 ft 23 kts 168°
2026-05-07 20:21 38.77619 -9.13321 336 ft 21 kts 181°
2026-05-07 20:22 38.77470 -9.13291 337 ft 22 kts 168°
2026-05-07 20:22 38.77319 -9.13256 338 ft 23 kts 172°
2026-05-07 20:22 38.77168 -9.13217 337 ft 21 kts 167°
2026-05-07 20:22 38.77029 -9.13180 338 ft 20 kts 168°
2026-05-07 20:23 38.76903 -9.13145 339 ft 14 kts 166°
2026-05-07 20:23 38.76887 -9.13137 337 ft 6 kts 144°
2026-05-07 20:23 38.76887 -9.13078 335 ft 4 kts 79°
2026-05-07 20:23 38.76891 -9.13054 333 ft 1 kts 78°
2026-05-07 20:24 38.76891 -9.13052 334 ft 0 kts 78°